Погода в Елатьме

Погода в Елатьме : погода сейчас, прогноз погоды и архив. Всё, что Вы хотите узнать о погоде в Елатьме!

Поиск расширенной информации на нашем сайте:

Другие новости

Новости СМИ2

Главная страница сайта

Новости сайта

03.07.2017

Напоминаем, что на нашем специализированном сайте Метеоцентр.Азия вы можете получить высокодетализированные автоматические прогнозы погоды по пунктам России, СНГ и мира в авиационном формате (включающие направление и скорость ветра, видимость, явления погоды, количество и форму облачности, нижнюю и верхнюю границу облачности).


Погода в Елатьме - сегодня

Время (UTC), дата Ветер
(°,м/с) 
Видим.   Явления Облачность Т
(°С)
Тd
(°С)
f(%) Тe
(°С)
Pmin
(гПа)
dP
(гПа)
Po
(мм)
O2
(г/м3)
Тmin Tmax R s Состояние
почвы
12 20.10.17 340 (С) 10 км    8/8 600 м 
[Sc]
+5.6 +0.4 69 +5  1020  0.1  752  297           
15 20.10.17 280 (З) 10 км    10/10 600 м 
[Sc]
+3.7 +0.6 80 +3  1020.3  0.2  753  299    +6.4       
18 20.10.17 300 (СЗ) 10 км    10/10 600 м 
[Sc]
+3.1 +0.3 82 +3  1020.4  0.2  753  300           
21 20.10.17 310 (СЗ) 4000 м  дымка  6/6 600 м 
[Sc]
+1.1 +0.3 94 1020.4  753  302           
00 21.10.17 290 (З) 1000 м  дымка  4/4 600 м 
[Sc]
-0.2 -0.4 99 -1  1020.1  -0.5  752  303           
03 21.10.17 250 (З) 0500 м  туман  н/о 
-0.6 -0.7 99 1019.5  -0.5  752  304  -1        влажная 
06 21.10.17 290 (З) 4000 м  дымка{туман}  10/8 600 м средняя 
[Sc|Ac trans]
+1.1 +1 99 1019.1  -0.3  752  301           
09 21.10.17 320 (СЗ) 10 км    10/10 600 м 
[Sc]
+3.1 +1.3 88 +3  1018.5  -0.4  751  299           
12 21.10.17 350 (С) 10 км    10/8 300 м кучево-дожд., средняя 
[Cb cap|Ac trans]
+4 +0.4 77 +4  1017.4  -1  750  298           
15 21.10.17 060 (СВ) 4000 м  в посл. час дождь со снегом{ливн. осадки}  10/10 300 м кучево-дожд. 
[Cb cap]
+1 +0.3 95 +2  1017.7  0.1  751  301    +4.2  0.6     
18 21.10.17 060 (СВ) 4000 м  слаб. ливневой снег  10/10 300 м кучево-дожд. 
[Cb cap]
+0.8 +0.5 98 +1  1017.6  0.1  750  301           
21 21.10.17 030 (СВ) 4000 м  дымка{ливн. осадки}  10/10 300 м кучево-дожд. 
[Cb cap]
+0.5 +0.2 98 +1  1017.5  0.1  750  302           
00 22.10.17 030 (СВ) 4000 м  дымка{ливн. осадки}  10/0 средняя 
[Ac trans]
-0.6 -1.4 94 1017.6  750  303           
03 22.10.17 030 (СВ) 4000 м    10/3 600 м верхняя 
[Sc|Ci fib]
-2 -2.6 96 -1  1017.7  750  305  -2    0.5     
06 22.10.17 360 (С) 10 км    9/9 600 м 
[Sc]
-1.3 -3.2 87 -1  1018.3  0.5  751  304  -3.2         
09 22.10.17 330 (СЗ) 10 км    10/10 300 м кучево-дожд. 
[Cb cap]
+0 -4.7 71 -1  1018.2  751  303           
12 22.10.17 310 (СЗ) 10 км    10/9 600 м верхняя 
[Sc|Ci fib]
+0.8 -4.4 68 1017.7  -0.4  751  302           
15 22.10.17 280 (З) 10 км    9/0 
[St]
-0.5 -4 77 -1  1018  0.2  751  303    +0.9       
18 22.10.17 290 (З) 10 км    5/0 верхняя 
[Ci fib]
-2.8 -4.9 85 -4  1018.1  751  306           
21 22.10.17 260 (З) 10 км    6/0 верхняя 
[Ci fib]
-3 -4.7 88 -4  1018  -0.2  751  306           
00 23.10.17 270 (З) 10 км    8/5 600 м средняя 
[Sc|Ac trans]
-1.8 -4.3 83 -4  1017.7  -0.2  750  305           
03 23.10.17 250 (З) 10 км    10/3 600 м средняя 
[Sc|Ac trans]
-3.6 -5 90 -5  1017.8  750  307  -3.6        замёрзшая 
06 23.10.17 260 (З) 4000 м  слаб. ливневой снег  10/10 300 м кучево-дожд. 
[Cb cap]
-1.8 -3.8 86 -3  1018  0.3  751  305  -3.7         
09 23.10.17 290 (З) 4000 м  слаб. ливневой снег  10/10 300 м кучево-дожд. 
[Cb cap]
-0.9 -2.2 91 -2  1018.6  0.8  751  304           
12 23.10.17 320 (СЗ) 10 км  {ливн. осадки}  10/10 600 м 
[Sc]
+0.3 -1.6 87 1020.1  1.5  752  303           
Время (UTC), дата Ветер
(°,м/с) 
Видим.   Явления Облачность Т
(°С)
Тd
(°С)
f(%) Тe
(°С)
Pmin
(гПа)
dP
(гПа)
Po
(мм)
O2
(г/м3)
Тmin Tmax R s Состояние
почвы

Для получения пояснительной информации подведите курсор к названию столбца.

ПОГОДА в Елатьме - архив

Всё, что Вы хотите узнать о погоде в Елатьме - удобно и подробно!

Выберите нужную дату (начиная с 1 января 2015* года) и нажмите кнопку "Найти".
Будут отображены архивные сводки погоды по пункту Елатьма, начиная с указанной даты.


Отображать данные в формате CSV (для использования в таблицах Excel)


Внимание! Наш архив погоды предназначен исключительно для личного некоммерческого использования в познавательных целях. Если Вам необходимы официальные справки о состоянии погоды (для производственных, юридических, коммерческих и т.п. целей), обращайтесь в органы Росгидромета.

*Примечание: данная дата относится к архиву по метеостанциям СССР (Россия, СНГ, Балтия).
Архив по метеостанциям Зарубежной Европы и Азии (кроме Китая) хранится 10 дней, по другим регионам земного шара (Китай, Африка, Америка, Австралия, Океания) - 1 день.

Елатьма - район местоположения метеостанции


Название, широта, долгота, высота метеостанции:
Елатьма 54.9°ш. 41.8°д. 136 м над ур. моря [Российская Федерация]

Дополнительная информация

В oтличие oт бoльшинства пoгoдных сайтoв мы публикуем пoдрoбную метеoинфoрмацию в детальнoм прoфессиoнальнoм фoрмате.

Характеристики температуры и влажнoсти вoздуха измеряются на высoте 2 м в тени вдали oт зданий и деревьев.
Скoрoсть ветра измеряется на высoте 10 м (на урoвне рoста челoвека скoрoсть ветра ниже в 1.5-2 раза). Если метеoстанция нахoдится в гoрoде или в лесу, тo скoрoсть ветра занижена на 2-4 м/с пo сравнению с oткрытым местoм. Скoрoсть ветра над акватoриями крупных рек и oзёр, а также на вершинах хoлмoв на 2-5 м/с выше, чем в oбычных услoвиях.
Атмoсфернoе давление в разных тoчках местнoсти мoжет значительнo oтличаться oт давления на метеoстанции, в зависимoсти oт услoвий рельефа (при пoдъёме на 10 м давление пoнижается примернo на 1 мм рт.ст.).